Regional Weather Roundup
Issued by NWS

Home | Current Version | Previous Version | Graphics & Text | Print | Product List | Glossary On
Versions: 1 2 3 4 5 6 7 8 9 10 11 12 13 14 15 16 17 18 19 20 21 22 23 24 25 26 27 28 29 30 31 32 33 34 35 36 37 38 39 40 41 42 43 44 45 46 47 48 49 50
000
ASUS43 KBIS 020002
RWRND

NORTH DAKOTA REGIONAL WEATHER ROUNDUP
NATIONAL WEATHER SERVICE BISMARCK ND
700 PM CDT TUE SEP 01 2015

NOTE: "FAIR" INDICATES FEW OR NO CLOUDS BELOW 12,000 FEET WITH NO
SIGNIFICANT WEATHER AND/OR OBSTRUCTIONS TO VISIBILITY.


NDZ001>003-009>011-017-020100-
NORTHWEST NORTH DAKOTA

CITY           SKY/WX    TMP DP  RH WIND       PRES   REMARKS
WILLISTON      SUNNY     91  43  18 W15       29.73R
6HR MIN TEMP:  83; 6HR MAX TEMP:  94;

MINOT          SUNNY     86  53  32 S12       29.75S
$$

NDZ018>021-031>035-040>046-020100-
SOUTHWEST NORTH DAKOTA

CITY           SKY/WX    TMP DP  RH WIND       PRES   REMARKS
BISMARCK       SUNNY     86  65  49 S8        29.77S
6HR MIN TEMP:  82; 6HR MAX TEMP:  89;

DICKINSON      SUNNY     86  55  34 SE10      29.78S
GARRISON         N/A     85  60  42 S9        29.77S
6HR MIN TEMP:  80; 6HR MAX TEMP:  89;

HETTINGER ARPT SUNNY     87  53  31 SW3       29.81S
$$

NDZ004>008-012>016-024-026-027-054-020100-
NORTHEAST NORTH DAKOTA

CITY           SKY/WX    TMP DP  RH WIND       PRES   REMARKS
GRAND FORKS    SUNNY     84  54  35 S8        29.80F
GRND FRKS AFB  SUNNY     83  56  39 S7        29.81F
DEVILS LAKE    SUNNY     82  54  36 SE8       29.80S
$$

NDZ022-023-025-028>030-036>039-047>053-020100-
SOUTHEAST NORTH DAKOTA

CITY           SKY/WX    TMP DP  RH WIND       PRES   REMARKS
FARGO          MOSUNNY   85  55  35 SE9       29.83R
6HR MIN TEMP:  85; 6HR MAX TEMP:  90;

JAMESTOWN      SUNNY     83  64  52 SE7       29.81S
$$




USA.gov is the U.S. government's official web portal to all federal, state and local government web resources and services.